Regional Weather Roundup
Issued by NWS Memphis, TN

Home | Current Version | Previous Version | Text Only | Print | Product List | Glossary On
Versions: 1 2 3 4 5 6 7 8 9 10 11 12 13 14 15 16 17 18 19 20 21 22 23 24 25 26 27 28 29 30 31 32 33 34 35 36 37 38 39 40 41 42 43 44 45 46 47 48 49 50
000
ASUS44 KMEG 200600
RWRMEG
MEMPHIS CWA HOURLY WEATHER ROUNDUP
NATIONAL WEATHER SERVICE MEMPHIS TN
1200 AM CST SAT DEC 20 2014

...WEST TENNESSEE...

CITY           SKY/WX    TMP DP  RH WIND       PRES   REMARKS
MEMPHIS INTL   PTCLDY    40  31  70 NE5       30.23S
6HR MIN TEMP:  40; 6HR MAX TEMP:  44;

NWS MEMPHIS      N/A     38 N/A N/A MISG        N/A
JACKSON        CLOUDY    37  31  78 CALM      30.23F
6HR MIN TEMP:  36; 6HR MAX TEMP:  41; 6HR PCP:  0.01;

LEXINGTON      PTCLDY    36  28  75 N5        30.22R WCI  32
SAVANNAH       CLOUDY    37  30  75 N3        30.21S
DYERSBURG      CLOUDY    37  23  56 NE3       30.26S
6HR MIN TEMP:  37; 6HR MAX TEMP:  39;

UNION CITY     CLOUDY    34  30  86 N3        30.24S
PARIS          CLEAR     28  27  93 N3        30.24S


...EASTERN ARKANSAS...

CITY           SKY/WX    TMP DP  RH WIND       PRES   REMARKS
JONESBORO      CLOUDY    38  34  85 NE5       30.25F WCI  34
6HR MIN TEMP:  38; 6HR MAX TEMP:  39;

WEST MEMPHIS   MOCLDY    38  34  85 N3        30.23S
6HR MIN TEMP:  38; 6HR MAX TEMP:  43; 6HR PCP: TRACE;

BATESVILLE     CLOUDY    37  32  81 CALM      30.24F
6HR MIN TEMP:  37; 6HR MAX TEMP:  39;

WALNUT RIDGE   CLOUDY    37  32  81 NE6       30.25F WCI  33
6HR MIN TEMP:  37; 6HR MAX TEMP:  39;

BLYTHEVILLE    CLOUDY    39  36  89 N3        30.26S
6HR MIN TEMP:  39; 6HR MAX TEMP:  41;

SEARCY         CLOUDY    39  35  86 NE6       30.26S WCI  35
6HR MIN TEMP:  39; 6HR MAX TEMP:  40;

STUTTGART      CLOUDY    39  36  87 NE6       30.24F WCI  35
6HR MIN TEMP:  39; 6HR MAX TEMP:  43;

PINE BLUFF     CLOUDY    41  37  86 N5        30.23F
6HR MIN TEMP:  41; 6HR MAX TEMP:  43;

MONTICELLO     CLOUDY    43  39  86 NE6       30.22S
6HR MIN TEMP:  43; 6HR MAX TEMP:  46;



...NORTH MISSISSIPPI...

CITY           SKY/WX    TMP DP  RH WIND       PRES   REMARKS
TUPELO         CLOUDY    40  35  83 NE5       30.21F
6HR MIN TEMP:  40; 6HR MAX TEMP:  43; 6HR PCP:  0.01;

OLIVE BRANCH   CLEAR     36  36 100 CALM      30.23F
TUNICA         PTCLDY    37  36  93 CALM      30.25S
GRENADA        CLOUDY    41  37  87 CALM      30.23S
GREENWOOD      CLOUDY    43  40  89 NE7       30.21S
6HR MIN TEMP:  43; 6HR MAX TEMP:  45; 6HR PCP:  0.01;

COLUMBUS       CLOUDY    41  38  90 NE5       30.20F
6HR MIN TEMP:  41; 6HR MAX TEMP:  44; 6HR PCP:  0.07;

STARKVILLE     CLOUDY    41  39  93 N5        30.19S FOG
GOLDEN TRIANGL CLOUDY    43  37  81 N6        30.19S
6HR MIN TEMP:  43; 6HR MAX TEMP:  45; 6HR PCP:  0.01;



...SOUTHEAST MISSOURI...

CITY           SKY/WX    TMP DP  RH WIND       PRES   REMARKS
WEST PLAINS    CLOUDY    34  31  88 SE5       30.23S WCI  30
6HR MIN TEMP:  34; 6HR MAX TEMP:  36;

POPLAR BLUFF   CLOUDY    36  32  85 N6        30.26F WCI  31
6HR MIN TEMP:  36; 6HR MAX TEMP:  38; 6HR PCP: TRACE;

CAPE GIRARDEAU CLOUDY    36  30  79 CALM      30.28R
6HR MIN TEMP:  35; 6HR MAX TEMP:  39;



...NORTHWEST ALABAMA...

CITY           SKY/WX    TMP DP  RH WIND       PRES   REMARKS
MUSCLE SHOALS  CLOUDY    39  31  72 CALM      30.20F
6HR MIN TEMP:  39; 6HR MAX TEMP:  42; 6HR PCP: TRACE;



...MIDDLE TENNESSEE...

CITY           SKY/WX    TMP DP  RH WIND       PRES   REMARKS
NASHVILLE      CLOUDY    37  28  70 N5        30.22F WCI  33
6HR MIN TEMP:  37; 6HR MAX TEMP:  38; 6HR PCP: TRACE;

CLARKSVILLE    MOCLDY    33  27  78 N5        30.24S WCI  29
6HR MIN TEMP:  32; 6HR MAX TEMP:  36;



...WESTERN KENTUCKY...

CITY           SKY/WX    TMP DP  RH WIND       PRES   REMARKS
PADUCAH        CLOUDY    34  28  79 NE3       30.26F
6HR MIN TEMP:  34; 6HR MAX TEMP:  38;



...CENTRAL ARKANSAS...

CITY           SKY/WX    TMP DP  RH WIND       PRES   REMARKS
LITTLE ROCK    CLOUDY    41  35  79 NE3       30.25S
6HR MIN TEMP:  41; 6HR MAX TEMP:  43;



SKY/WX REPORTED AS FAIR MEANS FEW OR NO CLOUDS BELOW
12 THOUSAND FEET.



USA.gov is the U.S. government's official web portal to all federal, state and local government web resources and services.